Keokuk, IA

11:20 AM CST on January 23, 2017 (GMT -0600)
Keokuk Municipal

Weather History for KEOK - September, 2014

Change the Weather History Date:

Monday, September 1, 2014

  Actual Average Record
Temperature  
Mean Temperature 74 °F -  
Max Temperature 80 °F 84 °F 100 °F (2011)
Min Temperature 68 °F 63 °F -99 °F (1998)
Cooling Degree Days 9    
Growing Degree Days 24 (Base 50)    
Moisture  
Dew Point 68 °F    
Average Humidity 81    
Maximum Humidity 94    
Minimum Humidity 65    
Precipitation  
Precipitation 0.02 in - - ()
Sea Level Pressure  
Sea Level Pressure 29.82 in    
Wind  
Wind Speed 9 mph (SW)    
Max Wind Speed 21 mph    
Max Gust Speed 26 mph    
Visibility 10 miles    
Events Rain    
Averages and records for this station are not official NWS values.
T = Trace of Precipitation, MM = Missing Value Source: NWS Daily Summary

Daily Weather History Graph

Daily Weather History Graph

Search for Another Location

Airport or City:

Trip Planner

Search our weather history database for the weather conditions in past years. The results will help you decide how hot, cold, wet, or windy it might be!

Date:

Astronomy

Sep. 01, 2014 Rise Set
Actual Time 6:33 AM CDT 7:37 PM CDT
Civil Twilight 6:05 AM CDT 8:05 PM CDT
Nautical Twilight 5:31 AM CDT 8:38 PM CDT
Astronomical Twilight 4:56 AM CDT 9:13 PM CDT
Moon 1:20 PM CDT (9/1) 11:37 PM CDT (9/1)
Length of Visible Light 14h 00m
Length of Day
13h 04m
Waxing Crescent, 42% of the Moon is Illuminated
Sep 1
Waxing Crescent
Sep 2
First Quarter
Sep 8
Full
Sep 15
Last Quarter
Sep 24
New

Hourly Weather History & Observations

Time (CDT) Temp. Heat Index Dew Point Humidity Pressure Visibility Wind Dir Wind Speed Gust Speed Precip Events Conditions
12:15 AM 77.0 °F - 69.8 °F 78% 29.81 in 10.0 mi South 8.1 mph - N/A   Clear
12:35 AM 78.8 °F - 69.8 °F 74% 29.80 in 10.0 mi South 8.1 mph 16.1 mph N/A   Clear
12:55 AM 77.0 °F - 69.8 °F 78% 29.80 in 10.0 mi South 10.4 mph - N/A   Scattered Clouds
1:15 AM 78.8 °F - 69.8 °F 74% 29.80 in 10.0 mi South 10.4 mph 18.4 mph N/A   Mostly Cloudy
1:35 AM 78.8 °F - 69.8 °F 74% 29.79 in 10.0 mi South 13.8 mph 20.7 mph N/A   Mostly Cloudy
1:55 AM 77.0 °F - 69.8 °F 78% 29.80 in 10.0 mi SSW 16.1 mph - N/A   Mostly Cloudy
2:15 AM 77.0 °F - 71.6 °F 83% 29.81 in 10.0 mi SSW 10.4 mph - N/A   Partly Cloudy
2:35 AM 77.0 °F - 69.8 °F 78% 29.80 in 10.0 mi SW 11.5 mph - N/A   Clear
2:55 AM 75.2 °F - 68.0 °F 78% 29.80 in 10.0 mi NNW 12.7 mph - N/A   Partly Cloudy
3:15 AM 69.8 °F - 66.2 °F 88% 29.79 in 10.0 mi NNE 5.8 mph - N/A   Partly Cloudy
3:35 AM 69.8 °F - 66.2 °F 88% 29.79 in 10.0 mi NE 5.8 mph - N/A   Scattered Clouds
3:55 AM 69.8 °F - 66.2 °F 88% 29.79 in 10.0 mi East 5.8 mph - N/A   Mostly Cloudy
4:15 AM 69.8 °F - 66.2 °F 88% 29.80 in 10.0 mi Calm Calm - N/A   Overcast
4:35 AM 68.0 °F - 66.2 °F 94% 29.79 in 10.0 mi ESE 4.6 mph - N/A   Overcast
4:55 AM 68.0 °F - 66.2 °F 94% 29.78 in 10.0 mi ESE 4.6 mph - N/A   Mostly Cloudy
5:15 AM 68.0 °F - 66.2 °F 94% 29.77 in 10.0 mi SE 6.9 mph - N/A   Scattered Clouds
5:35 AM 68.0 °F - 66.2 °F 94% 29.78 in 10.0 mi South 6.9 mph 13.8 mph N/A   Mostly Cloudy
5:55 AM 69.8 °F - 68.0 °F 94% 29.81 in 8.0 mi SW 13.8 mph - 0.02 in Rain Light Rain
6:15 AM 69.8 °F - 68.0 °F 94% 29.80 in 9.0 mi SW 16.1 mph 26.5 mph N/A Rain Light Rain
6:35 AM 68.0 °F - 66.2 °F 94% 29.75 in - South 13.8 mph - N/A   Unknown
7:15 AM 68.0 °F - 66.2 °F 94% 29.70 in 10.0 mi South 8.1 mph 15.0 mph N/A   Clear
7:35 AM 68.0 °F - 66.2 °F 94% 29.73 in 10.0 mi SW 9.2 mph 15.0 mph N/A   Clear
7:55 AM 68.0 °F - 66.2 °F 94% 29.77 in 10.0 mi West 12.7 mph 19.6 mph N/A   Mostly Cloudy
8:15 AM 68.0 °F - 66.2 °F 94% 29.79 in 10.0 mi West 8.1 mph - N/A   Overcast
8:35 AM 69.8 °F - 66.2 °F 88% 29.79 in 10.0 mi West 10.4 mph - N/A   Scattered Clouds
8:55 AM 71.6 °F - 66.2 °F 83% 29.79 in 10.0 mi West 10.4 mph - N/A   Clear
9:15 AM 71.6 °F - 66.2 °F 83% 29.79 in 10.0 mi WNW 10.4 mph 17.3 mph N/A   Clear
9:35 AM 71.6 °F - 66.2 °F 83% 29.80 in 10.0 mi West 11.5 mph - N/A   Scattered Clouds
10:15 AM 71.6 °F - 66.2 °F 83% 29.81 in 10.0 mi West 12.7 mph - N/A   Mostly Cloudy
10:35 AM 73.4 °F - 66.2 °F 78% 29.82 in 10.0 mi West 12.7 mph - N/A   Mostly Cloudy
11:15 AM 73.4 °F - 66.2 °F 78% 29.83 in 10.0 mi West 13.8 mph 25.3 mph N/A   Mostly Cloudy
11:35 AM 73.4 °F - 66.2 °F 78% 29.84 in 10.0 mi WSW 13.8 mph 20.7 mph N/A   Overcast
11:55 AM 75.2 °F - 66.2 °F 73% 29.84 in 10.0 mi WSW 12.7 mph - N/A   Mostly Cloudy
12:35 PM 77.0 °F - 66.2 °F 69% 29.84 in 10.0 mi WSW 15.0 mph - N/A   Mostly Cloudy
1:15 PM 78.8 °F - 68.0 °F 69% 29.84 in 10.0 mi West 12.7 mph 20.7 mph N/A   Mostly Cloudy
1:35 PM 78.8 °F - 68.0 °F 69% 29.83 in 10.0 mi WSW 12.7 mph 19.6 mph N/A   Scattered Clouds
1:55 PM 78.8 °F - 68.0 °F 69% 29.83 in 10.0 mi SW 13.8 mph 20.7 mph N/A   Scattered Clouds
2:15 PM 78.8 °F - 68.0 °F 69% 29.84 in 10.0 mi WSW 13.8 mph 20.7 mph N/A   Scattered Clouds
2:35 PM 78.8 °F - 68.0 °F 69% 29.84 in 10.0 mi SW 20.7 mph - N/A   Mostly Cloudy
3:15 PM 78.8 °F - 68.0 °F 69% 29.84 in 10.0 mi WSW 11.5 mph - N/A   Scattered Clouds
3:35 PM 78.8 °F - 68.0 °F 69% 29.84 in 10.0 mi WSW 12.7 mph 19.6 mph N/A   Scattered Clouds
3:55 PM 80.6 °F 83.2 °F 68.0 °F 65% 29.84 in 10.0 mi SW 12.7 mph - N/A   Scattered Clouds
4:15 PM 80.6 °F 83.2 °F 68.0 °F 65% 29.84 in 10.0 mi SW 11.5 mph 19.6 mph N/A   Partly Cloudy
4:35 PM 78.8 °F - 68.0 °F 69% 29.85 in 10.0 mi WSW 11.5 mph - N/A   Partly Cloudy
4:55 PM 80.6 °F 83.2 °F 68.0 °F 65% 29.85 in 10.0 mi SW 9.2 mph 17.3 mph N/A   Scattered Clouds
5:15 PM 78.8 °F - 68.0 °F 69% 29.85 in 10.0 mi WSW 9.2 mph 18.4 mph N/A   Partly Cloudy
5:35 PM 78.8 °F - 68.0 °F 69% 29.85 in 10.0 mi WSW 9.2 mph - N/A   Clear
5:55 PM 78.8 °F - 68.0 °F 69% 29.85 in 10.0 mi WSW 8.1 mph - N/A   Clear
6:15 PM 78.8 °F - 68.0 °F 69% 29.84 in 10.0 mi WSW 6.9 mph - N/A   Clear
6:35 PM 77.0 °F - 68.0 °F 74% 29.83 in 10.0 mi WSW 5.8 mph - N/A   Clear
6:55 PM 77.0 °F - 69.8 °F 78% 29.83 in 10.0 mi South 4.6 mph - N/A   Clear
7:15 PM 75.2 °F - 69.8 °F 83% 29.84 in 10.0 mi SSW 4.6 mph - N/A   Clear
7:35 PM 75.2 °F - 69.8 °F 83% 29.84 in 10.0 mi South 4.6 mph - N/A   Clear
7:55 PM 75.2 °F - 69.8 °F 83% 29.83 in 10.0 mi Calm Calm - N/A   Clear
8:15 PM 73.4 °F - 69.8 °F 88% 29.83 in 10.0 mi Calm Calm - N/A   Clear
8:35 PM 73.4 °F - 69.8 °F 88% 29.84 in 10.0 mi Calm Calm - N/A   Clear
9:15 PM 73.4 °F - 69.8 °F 88% 29.86 in 10.0 mi SW 3.5 mph - N/A   Clear
9:35 PM 73.4 °F - 69.8 °F 88% 29.87 in 10.0 mi SSW 5.8 mph - N/A   Clear
9:55 PM 73.4 °F - 69.8 °F 88% 29.89 in 10.0 mi SSW 5.8 mph - N/A   Mostly Cloudy
10:15 PM 73.4 °F - 69.8 °F 88% 29.89 in 10.0 mi SSW 4.6 mph - N/A   Mostly Cloudy
10:35 PM 73.4 °F - 69.8 °F 88% 29.88 in 10.0 mi Calm Calm - N/A   Partly Cloudy
10:55 PM 73.4 °F - 69.8 °F 88% 29.88 in 10.0 mi Calm Calm - N/A   Clear
11:35 PM 69.8 °F - 68.0 °F 94% 29.87 in 10.0 mi Calm Calm - N/A   Clear
11:55 PM 69.8 °F - 68.0 °F 94% 29.88 in 10.0 mi Calm Calm - N/A   Clear